owner,sensor,date,latitude,longitude,vertical_datum,sea_water_practical_salinity,qcFlag 
DISL,ioos:station:DISL:DISL:1,2011-05-01T00:00:00Z,30.2513,-88.0778,5.934,4.27,1111122 
DISL,ioos:station:DISL:DISL:1,2011-05-01T00:30:00Z,30.2513,-88.0778,5.899,4.06,1111122 
DISL,ioos:station:DISL:DISL:1,2011-05-01T01:00:00Z,30.2513,-88.0778,5.934,3.9,1111122 
DISL,ioos:station:DISL:DISL:1,2011-05-01T01:30:00Z,30.2513,-88.0778,5.92,3.94,1111122 
DISL,ioos:station:DISL:DISL:1,2011-05-01T02:00:00Z,30.2513,-88.0778,5.889,3.89,1111122 
DISL,ioos:station:DISL:DISL:1,2011-05-01T02:30:00Z,30.2513,-88.0778,5.943,3.87,1111122 
DISL,ioos:station:DISL:DISL:1,2011-05-01T03:00:00Z,30.2513,-88.0778,5.958,3.97,1111122 
DISL,ioos:station:DISL:DISL:1,2011-05-01T03:30:00Z,30.2513,-88.0778,5.969,4.21,1111122 
DISL,ioos:station:DISL:DISL:1,2011-05-01T04:00:00Z,30.2513,-88.0778,6.018,4.35,1111122 
DISL,ioos:station:DISL:DISL:1,2011-05-01T04:30:00Z,30.2513,-88.0778,5.983,4.34,1111122 
DISL,ioos:station:DISL:DISL:1,2011-05-01T05:00:00Z,30.2513,-88.0778,6.08,4.36,1111122 
DISL,ioos:station:DISL:DISL:1,2011-05-01T05:30:00Z,30.2513,-88.0778,6.135,4.44,1111122 
DISL,ioos:station:DISL:DISL:1,2011-05-01T06:00:00Z,30.2513,-88.0778,6.173,4.56,1111122 
DISL,ioos:station:DISL:DISL:1,2011-05-01T06:30:00Z,30.2513,-88.0778,6.276,4.68,1111122 
DISL,ioos:station:DISL:DISL:1,2011-05-01T07:00:00Z,30.2513,-88.0778,6.412,4.6,1111122 
DISL,ioos:station:DISL:DISL:1,2011-05-01T07:30:00Z,30.2513,-88.0778,6.493,4.44,1111122 
DISL,ioos:station:DISL:DISL:1,2011-05-01T08:00:00Z,30.2513,-88.0778,6.62,4.43,1111122 
DISL,ioos:station:DISL:DISL:1,2011-05-01T08:30:00Z,30.2513,-88.0778,6.656,4.34,1111122 
DISL,ioos:station:DISL:DISL:1,2011-05-01T09:00:00Z,30.2513,-88.0778,6.705,4.5,1111122 
DISL,ioos:station:DISL:DISL:1,2011-05-01T09:30:00Z,30.2513,-88.0778,6.694,4.61,1111122 
DISL,ioos:station:DISL:DISL:1,2011-05-01T10:00:00Z,30.2513,-88.0778,6.755,4.71,1111122 
DISL,ioos:station:DISL:DISL:1,2011-05-01T10:30:00Z,30.2513,-88.0778,6.954,4.96,1111122 
DISL,ioos:station:DISL:DISL:1,2011-05-01T11:00:00Z,30.2513,-88.0778,6.857,8.64,1111122 
DISL,ioos:station:DISL:DISL:1,2011-05-01T11:30:00Z,30.2513,-88.0778,6.931,8.9,1111122 
DISL,ioos:station:DISL:DISL:1,2011-05-01T12:00:00Z,30.2513,-88.0778,6.905,11.16,1111122 
DISL,ioos:station:DISL:DISL:1,2011-05-01T12:30:00Z,30.2513,-88.0778,7.02,9.13,1111122 
DISL,ioos:station:DISL:DISL:1,2011-05-01T13:00:00Z,30.2513,-88.0778,7.04,15.38,1111122 
DISL,ioos:station:DISL:DISL:1,2011-05-01T13:30:00Z,30.2513,-88.0778,7.02,14.43,1111122 
DISL,ioos:station:DISL:DISL:1,2011-05-01T14:00:00Z,30.2513,-88.0778,7.06,12.36,1111122 
DISL,ioos:station:DISL:DISL:1,2011-05-01T14:30:00Z,30.2513,-88.0778,7.07,10.8,1111122 
DISL,ioos:station:DISL:DISL:1,2011-05-01T15:00:00Z,30.2513,-88.0778,7.06,9.59,1111122 
DISL,ioos:station:DISL:DISL:1,2011-05-01T15:30:00Z,30.2513,-88.0778,7.0,7.49,1111122 
DISL,ioos:station:DISL:DISL:1,2011-05-01T16:00:00Z,30.2513,-88.0778,6.981,6.84,1111122 
DISL,ioos:station:DISL:DISL:1,2011-05-01T16:30:00Z,30.2513,-88.0778,6.93,5.36,1111122 
DISL,ioos:station:DISL:DISL:1,2011-05-01T17:00:00Z,30.2513,-88.0778,6.885,4.78,1111122 
DISL,ioos:station:DISL:DISL:1,2011-05-01T17:30:00Z,30.2513,-88.0778,6.748,4.13,1111122 
DISL,ioos:station:DISL:DISL:1,2011-05-01T18:00:00Z,30.2513,-88.0778,6.713,3.99,1111122 
DISL,ioos:station:DISL:DISL:1,2011-05-01T18:30:00Z,30.2513,-88.0778,6.606,3.94,1111122 
DISL,ioos:station:DISL:DISL:1,2011-05-01T19:00:00Z,30.2513,-88.0778,6.566,3.85,1111122 
DISL,ioos:station:DISL:DISL:1,2011-05-01T19:30:00Z,30.2513,-88.0778,6.462,3.49,1111122 
DISL,ioos:station:DISL:DISL:1,2011-05-01T20:00:00Z,30.2513,-88.0778,6.381,3.45,1111122 
DISL,ioos:station:DISL:DISL:1,2011-05-01T20:30:00Z,30.2513,-88.0778,6.349,3.55,1111122 
DISL,ioos:station:DISL:DISL:1,2011-05-01T21:00:00Z,30.2513,-88.0778,6.233,3.61,1111122 
DISL,ioos:station:DISL:DISL:1,2011-05-01T21:30:00Z,30.2513,-88.0778,6.185,3.65,1111122 
DISL,ioos:station:DISL:DISL:1,2011-05-01T22:00:00Z,30.2513,-88.0778,6.132,3.68,1111122 
DISL,ioos:station:DISL:DISL:1,2011-05-01T22:30:00Z,30.2513,-88.0778,6.048,3.61,1111122 
DISL,ioos:station:DISL:DISL:1,2011-05-01T23:00:00Z,30.2513,-88.0778,6.059,3.76,1111122 
DISL,ioos:station:DISL:DISL:1,2011-05-01T23:30:00Z,30.2513,-88.0778,6.057,3.83,1111122 
DISL,ioos:station:DISL:DISL:1,2011-05-02T00:00:00Z,30.2513,-88.0778,6.078,3.96,1111122 
DISL,ioos:station:DISL:DISL:1,2011-05-02T00:30:00Z,30.2513,-88.0778,6.035,3.98,1111122 
DISL,ioos:station:DISL:DISL:1,2011-05-02T01:00:00Z,30.2513,-88.0778,6.051,4.03,1111122 
DISL,ioos:station:DISL:DISL:1,2011-05-02T01:30:00Z,30.2513,-88.0778,6.053,4.05,1111122 
DISL,ioos:station:DISL:DISL:1,2011-05-02T02:00:00Z,30.2513,-88.0778,6.101,4.0,1111122 
DISL,ioos:station:DISL:DISL:1,2011-05-02T02:30:00Z,30.2513,-88.0778,6.125,4.93,1111122 
DISL,ioos:station:DISL:DISL:1,2011-05-02T03:00:00Z,30.2513,-88.0778,6.203,5.65,1111122 
DISL,ioos:station:DISL:DISL:1,2011-05-02T03:30:00Z,30.2513,-88.0778,6.253,6.48,1111122 
DISL,ioos:station:DISL:DISL:1,2011-05-02T04:00:00Z,30.2513,-88.0778,6.258,6.43,1111122 
DISL,ioos:station:DISL:DISL:1,2011-05-02T04:30:00Z,30.2513,-88.0778,6.281,6.45,1111122 
DISL,ioos:station:DISL:DISL:1,2011-05-02T05:00:00Z,30.2513,-88.0778,6.347,6.7,1111122 
DISL,ioos:station:DISL:DISL:1,2011-05-02T05:30:00Z,30.2513,-88.0778,6.424,6.64,1111122 
DISL,ioos:station:DISL:DISL:1,2011-05-02T06:00:00Z,30.2513,-88.0778,6.51,6.54,1111122 
DISL,ioos:station:DISL:DISL:1,2011-05-02T06:30:00Z,30.2513,-88.0778,6.612,6.46,1111122 
DISL,ioos:station:DISL:DISL:1,2011-05-02T07:00:00Z,30.2513,-88.0778,6.767,6.37,1111122 
DISL,ioos:station:DISL:DISL:1,2011-05-02T07:30:00Z,30.2513,-88.0778,6.876,6.37,1111122 
DISL,ioos:station:DISL:DISL:1,2011-05-02T08:00:00Z,30.2513,-88.0778,6.915,6.5,1111122 
DISL,ioos:station:DISL:DISL:1,2011-05-02T08:30:00Z,30.2513,-88.0778,6.926,12.01,1111122 
DISL,ioos:station:DISL:DISL:1,2011-05-02T09:00:00Z,30.2513,-88.0778,7.03,14.99,1111122 
DISL,ioos:station:DISL:DISL:1,2011-05-02T09:30:00Z,30.2513,-88.0778,7.05,15.07,1111122 
DISL,ioos:station:DISL:DISL:1,2011-05-02T10:00:00Z,30.2513,-88.0778,6.894,14.44,1111122 
DISL,ioos:station:DISL:DISL:1,2011-05-02T10:30:00Z,30.2513,-88.0778,7.24,13.94,1111122 
DISL,ioos:station:DISL:DISL:1,2011-05-02T11:00:00Z,30.2513,-88.0778,7.17,13.37,1111122 
DISL,ioos:station:DISL:DISL:1,2011-05-02T11:30:00Z,30.2513,-88.0778,7.21,9.01,1111122 
DISL,ioos:station:DISL:DISL:1,2011-05-02T12:00:00Z,30.2513,-88.0778,7.28,7.42,1111122 
DISL,ioos:station:DISL:DISL:1,2011-05-02T12:30:00Z,30.2513,-88.0778,7.31,6.38,1111122 
DISL,ioos:station:DISL:DISL:1,2011-05-02T13:00:00Z,30.2513,-88.0778,7.32,5.62,1111122 
DISL,ioos:station:DISL:DISL:1,2011-05-02T13:30:00Z,30.2513,-88.0778,7.38,8.68,1111122 
DISL,ioos:station:DISL:DISL:1,2011-05-02T14:00:00Z,30.2513,-88.0778,7.34,12.33,1111122 
DISL,ioos:station:DISL:DISL:1,2011-05-02T14:30:00Z,30.2513,-88.0778,7.23,15.55,1111122 
DISL,ioos:station:DISL:DISL:1,2011-05-02T15:00:00Z,30.2513,-88.0778,7.17,10.81,1111122 
DISL,ioos:station:DISL:DISL:1,2011-05-02T15:30:00Z,30.2513,-88.0778,7.16,8.54,1111122 
DISL,ioos:station:DISL:DISL:1,2011-05-02T16:00:00Z,30.2513,-88.0778,7.13,4.54,1111122 
DISL,ioos:station:DISL:DISL:1,2011-05-02T16:30:00Z,30.2513,-88.0778,7.07,4.07,1111122 
DISL,ioos:station:DISL:DISL:1,2011-05-02T17:00:00Z,30.2513,-88.0778,6.993,3.97,1111122 
DISL,ioos:station:DISL:DISL:1,2011-05-02T17:30:00Z,30.2513,-88.0778,6.902,3.91,1111122 
DISL,ioos:station:DISL:DISL:1,2011-05-02T18:00:00Z,30.2513,-88.0778,6.857,3.86,1111122 
DISL,ioos:station:DISL:DISL:1,2011-05-02T18:30:00Z,30.2513,-88.0778,6.711,3.94,1111122 
DISL,ioos:station:DISL:DISL:1,2011-05-02T19:00:00Z,30.2513,-88.0778,6.613,3.93,1111122 
DISL,ioos:station:DISL:DISL:1,2011-05-02T19:30:00Z,30.2513,-88.0778,6.533,3.91,1111122 
DISL,ioos:station:DISL:DISL:1,2011-05-02T20:00:00Z,30.2513,-88.0778,6.491,4.05,1111122 
DISL,ioos:station:DISL:DISL:1,2011-05-02T20:30:00Z,30.2513,-88.0778,6.367,4.19,1111122 
DISL,ioos:station:DISL:DISL:1,2011-05-02T21:00:00Z,30.2513,-88.0778,6.196,4.27,1111122 
DISL,ioos:station:DISL:DISL:1,2011-05-02T21:30:00Z,30.2513,-88.0778,6.205,4.52,1111122 
DISL,ioos:station:DISL:DISL:1,2011-05-02T22:00:00Z,30.2513,-88.0778,6.126,4.74,1111122 
DISL,ioos:station:DISL:DISL:1,2011-05-02T22:30:00Z,30.2513,-88.0778,6.044,5.04,1111122 
DISL,ioos:station:DISL:DISL:1,2011-05-02T23:00:00Z,30.2513,-88.0778,5.97,4.97,1111122 
DISL,ioos:station:DISL:DISL:1,2011-05-02T23:30:00Z,30.2513,-88.0778,5.933,4.78,1111122 
DISL,ioos:station:DISL:DISL:1,2011-05-03T00:00:00Z,30.2513,-88.0778,5.85,4.71,1111122 
DISL,ioos:station:DISL:DISL:1,2011-05-03T00:30:00Z,30.2513,-88.0778,5.846,4.39,1111122 
DISL,ioos:station:DISL:DISL:1,2011-05-03T01:00:00Z,30.2513,-88.0778,5.829,4.3,1111122 
DISL,ioos:station:DISL:DISL:1,2011-05-03T01:30:00Z,30.2513,-88.0778,5.841,3.85,1111122 
DISL,ioos:station:DISL:DISL:1,2011-05-03T02:00:00Z,30.2513,-88.0778,5.84,3.84,1111122 
DISL,ioos:station:DISL:DISL:1,2011-05-03T02:30:00Z,30.2513,-88.0778,5.81,4.0,1111122 
DISL,ioos:station:DISL:DISL:1,2011-05-03T03:00:00Z,30.2513,-88.0778,5.822,3.84,1111122 
DISL,ioos:station:DISL:DISL:1,2011-05-03T03:30:00Z,30.2513,-88.0778,5.839,4.0,1111122 
DISL,ioos:station:DISL:DISL:1,2011-05-03T04:00:00Z,30.2513,-88.0778,5.838,4.21,1111122 
DISL,ioos:station:DISL:DISL:1,2011-05-03T04:30:00Z,30.2513,-88.0778,5.891,4.27,1111122 
DISL,ioos:station:DISL:DISL:1,2011-05-03T05:00:00Z,30.2513,-88.0778,5.915,4.23,1111122 
DISL,ioos:station:DISL:DISL:1,2011-05-03T05:30:00Z,30.2513,-88.0778,5.996,4.36,1111122 
DISL,ioos:station:DISL:DISL:1,2011-05-03T06:00:00Z,30.2513,-88.0778,6.081,4.45,1111122 
DISL,ioos:station:DISL:DISL:1,2011-05-03T06:30:00Z,30.2513,-88.0778,6.119,4.56,1111122 
DISL,ioos:station:DISL:DISL:1,2011-05-03T07:00:00Z,30.2513,-88.0778,6.161,4.96,1111122 
DISL,ioos:station:DISL:DISL:1,2011-05-03T07:30:00Z,30.2513,-88.0778,6.272,5.27,1111122 
DISL,ioos:station:DISL:DISL:1,2011-05-03T08:00:00Z,30.2513,-88.0778,6.361,5.26,1111122 
DISL,ioos:station:DISL:DISL:1,2011-05-03T08:30:00Z,30.2513,-88.0778,6.432,4.81,1111122 
DISL,ioos:station:DISL:DISL:1,2011-05-03T09:00:00Z,30.2513,-88.0778,6.515,4.32,1111122 
DISL,ioos:station:DISL:DISL:1,2011-05-03T09:30:00Z,30.2513,-88.0778,6.745,4.28,1111122 
DISL,ioos:station:DISL:DISL:1,2011-05-03T10:00:00Z,30.2513,-88.0778,6.666,4.31,1111122 
DISL,ioos:station:DISL:DISL:1,2011-05-03T10:30:00Z,30.2513,-88.0778,6.756,4.46,1111122 
DISL,ioos:station:DISL:DISL:1,2011-05-03T11:00:00Z,30.2513,-88.0778,6.852,4.45,1111122 
DISL,ioos:station:DISL:DISL:1,2011-05-03T11:30:00Z,30.2513,-88.0778,6.941,7.24,1111122 
DISL,ioos:station:DISL:DISL:1,2011-05-03T12:00:00Z,30.2513,-88.0778,7.04,10.8,1111122 
DISL,ioos:station:DISL:DISL:1,2011-05-03T12:30:00Z,30.2513,-88.0778,7.12,11.65,1111122 
DISL,ioos:station:DISL:DISL:1,2011-05-03T13:00:00Z,30.2513,-88.0778,7.12,12.28,1111122 
DISL,ioos:station:DISL:DISL:1,2011-05-03T13:30:00Z,30.2513,-88.0778,7.21,12.19,1111122 
DISL,ioos:station:DISL:DISL:1,2011-05-03T14:00:00Z,30.2513,-88.0778,7.29,11.96,1111122 
DISL,ioos:station:DISL:DISL:1,2011-05-03T14:30:00Z,30.2513,-88.0778,7.31,7.34,1111122 
DISL,ioos:station:DISL:DISL:1,2011-05-03T15:00:00Z,30.2513,-88.0778,7.38,5.55,1111122 
DISL,ioos:station:DISL:DISL:1,2011-05-03T15:30:00Z,30.2513,-88.0778,7.3,8.18,1111122 
DISL,ioos:station:DISL:DISL:1,2011-05-03T16:00:00Z,30.2513,-88.0778,7.28,7.1,1111122 
DISL,ioos:station:DISL:DISL:1,2011-05-03T16:30:00Z,30.2513,-88.0778,7.19,8.64,1111122 
DISL,ioos:station:DISL:DISL:1,2011-05-03T17:00:00Z,30.2513,-88.0778,7.19,9.35,1111122 
DISL,ioos:station:DISL:DISL:1,2011-05-03T17:30:00Z,30.2513,-88.0778,7.21,8.64,1111122 
DISL,ioos:station:DISL:DISL:1,2011-05-03T18:00:00Z,30.2513,-88.0778,7.1,11.15,1111122 
DISL,ioos:station:DISL:DISL:1,2011-05-03T18:30:00Z,30.2513,-88.0778,7.13,9.69,1111122 
DISL,ioos:station:DISL:DISL:1,2011-05-03T19:00:00Z,30.2513,-88.0778,7.18,9.63,1111122 
DISL,ioos:station:DISL:DISL:1,2011-05-03T19:30:00Z,30.2513,-88.0778,7.17,6.31,1111122 
DISL,ioos:station:DISL:DISL:1,2011-05-03T20:00:00Z,30.2513,-88.0778,6.952,7.67,1111122 
DISL,ioos:station:DISL:DISL:1,2011-05-03T20:30:00Z,30.2513,-88.0778,6.705,8.05,1111122 
DISL,ioos:station:DISL:DISL:1,2011-05-03T21:00:00Z,30.2513,-88.0778,6.427,6.91,1111122 
DISL,ioos:station:DISL:DISL:1,2011-05-03T21:30:00Z,30.2513,-88.0778,6.781,7.06,1111122 
DISL,ioos:station:DISL:DISL:1,2011-05-03T22:00:00Z,30.2513,-88.0778,6.591,7.31,1111122 
DISL,ioos:station:DISL:DISL:1,2011-05-03T22:30:00Z,30.2513,-88.0778,6.458,7.45,1111122 
DISL,ioos:station:DISL:DISL:1,2011-05-03T23:00:00Z,30.2513,-88.0778,6.402,7.34,1111122 
DISL,ioos:station:DISL:DISL:1,2011-05-03T23:30:00Z,30.2513,-88.0778,6.277,7.78,1111122 
DISL,ioos:station:DISL:DISL:1,2011-05-04T00:00:00Z,30.2513,-88.0778,5.955,7.74,1111122 
DISL,ioos:station:DISL:DISL:1,2011-05-04T00:30:00Z,30.2513,-88.0778,6.068,7.55,1111122 
DISL,ioos:station:DISL:DISL:1,2011-05-04T01:00:00Z,30.2513,-88.0778,5.838,7.7,1111122 
DISL,ioos:station:DISL:DISL:1,2011-05-04T01:30:00Z,30.2513,-88.0778,5.786,7.62,1111122 
DISL,ioos:station:DISL:DISL:1,2011-05-04T02:00:00Z,30.2513,-88.0778,5.814,7.37,1111122 
DISL,ioos:station:DISL:DISL:1,2011-05-04T02:30:00Z,30.2513,-88.0778,4.75,6.98,1111122 
DISL,ioos:station:DISL:DISL:1,2011-05-04T03:00:00Z,30.2513,-88.0778,5.936,6.5,1111122 
DISL,ioos:station:DISL:DISL:1,2011-05-04T03:30:00Z,30.2513,-88.0778,5.684,6.22,1111122 
DISL,ioos:station:DISL:DISL:1,2011-05-04T04:00:00Z,30.2513,-88.0778,5.44,6.13,1111122 
DISL,ioos:station:DISL:DISL:1,2011-05-04T04:30:00Z,30.2513,-88.0778,5.52,5.75,1111122 
DISL,ioos:station:DISL:DISL:1,2011-05-04T05:00:00Z,30.2513,-88.0778,5.495,5.36,1111122 
DISL,ioos:station:DISL:DISL:1,2011-05-04T05:30:00Z,30.2513,-88.0778,5.703,6.08,1111122 
DISL,ioos:station:DISL:DISL:1,2011-05-04T06:00:00Z,30.2513,-88.0778,5.834,5.85,1111122 
DISL,ioos:station:DISL:DISL:1,2011-05-04T06:30:00Z,30.2513,-88.0778,5.833,6.09,1111122 
DISL,ioos:station:DISL:DISL:1,2011-05-04T07:00:00Z,30.2513,-88.0778,5.815,5.22,1111122 
DISL,ioos:station:DISL:DISL:1,2011-05-04T07:30:00Z,30.2513,-88.0778,5.347,4.94,1111122 
DISL,ioos:station:DISL:DISL:1,2011-05-04T08:00:00Z,30.2513,-88.0778,5.546,4.78,1111122 
DISL,ioos:station:DISL:DISL:1,2011-05-04T08:30:00Z,30.2513,-88.0778,5.649,4.63,1111122 
DISL,ioos:station:DISL:DISL:1,2011-05-04T09:00:00Z,30.2513,-88.0778,5.963,6.46,1111122 
DISL,ioos:station:DISL:DISL:1,2011-05-04T09:30:00Z,30.2513,-88.0778,6.125,7.16,1111122 
DISL,ioos:station:DISL:DISL:1,2011-05-04T10:00:00Z,30.2513,-88.0778,6.408,6.99,1111122 
DISL,ioos:station:DISL:DISL:1,2011-05-04T10:30:00Z,30.2513,-88.0778,6.02,6.44,1111122 
DISL,ioos:station:DISL:DISL:1,2011-05-04T11:00:00Z,30.2513,-88.0778,6.162,5.97,1111122 
DISL,ioos:station:DISL:DISL:1,2011-05-04T11:30:00Z,30.2513,-88.0778,6.269,5.75,1111122 
DISL,ioos:station:DISL:DISL:1,2011-05-04T12:00:00Z,30.2513,-88.0778,6.499,5.89,1111122 
DISL,ioos:station:DISL:DISL:1,2011-05-04T12:30:00Z,30.2513,-88.0778,6.502,6.36,1111122 
DISL,ioos:station:DISL:DISL:1,2011-05-04T13:00:00Z,30.2513,-88.0778,6.829,6.62,1111122 
DISL,ioos:station:DISL:DISL:1,2011-05-04T13:30:00Z,30.2513,-88.0778,6.586,6.53,1111122 
DISL,ioos:station:DISL:DISL:1,2011-05-04T14:00:00Z,30.2513,-88.0778,6.57,6.67,1111122 
DISL,ioos:station:DISL:DISL:1,2011-05-04T14:30:00Z,30.2513,-88.0778,6.51,8.18,1111122 
DISL,ioos:station:DISL:DISL:1,2011-05-04T15:00:00Z,30.2513,-88.0778,6.705,14.17,1111122 
DISL,ioos:station:DISL:DISL:1,2011-05-04T15:30:00Z,30.2513,-88.0778,6.462,14.61,1111122 
DISL,ioos:station:DISL:DISL:1,2011-05-04T16:00:00Z,30.2513,-88.0778,6.697,10.51,1111122 
DISL,ioos:station:DISL:DISL:1,2011-05-04T16:30:00Z,30.2513,-88.0778,7.07,8.0,1111122 
DISL,ioos:station:DISL:DISL:1,2011-05-04T17:00:00Z,30.2513,-88.0778,7.05,7.41,1111122 
DISL,ioos:station:DISL:DISL:1,2011-05-04T17:30:00Z,30.2513,-88.0778,6.935,7.36,1111122 
DISL,ioos:station:DISL:DISL:1,2011-05-04T18:00:00Z,30.2513,-88.0778,7.01,6.11,1111122 
DISL,ioos:station:DISL:DISL:1,2011-05-04T18:30:00Z,30.2513,-88.0778,6.963,5.82,1111122 
DISL,ioos:station:DISL:DISL:1,2011-05-04T19:00:00Z,30.2513,-88.0778,6.732,7.62,1111122 
DISL,ioos:station:DISL:DISL:1,2011-05-04T19:30:00Z,30.2513,-88.0778,6.692,7.14,1111122 
DISL,ioos:station:DISL:DISL:1,2011-05-04T20:00:00Z,30.2513,-88.0778,6.602,7.64,1111122 
DISL,ioos:station:DISL:DISL:1,2011-05-04T20:30:00Z,30.2513,-88.0778,6.512,7.23,1111122 
DISL,ioos:station:DISL:DISL:1,2011-05-04T21:00:00Z,30.2513,-88.0778,6.295,7.02,1111122 
DISL,ioos:station:DISL:DISL:1,2011-05-04T21:30:00Z,30.2513,-88.0778,5.995,6.87,1111122 
DISL,ioos:station:DISL:DISL:1,2011-05-04T22:00:00Z,30.2513,-88.0778,6.038,6.9,1111122 
DISL,ioos:station:DISL:DISL:1,2011-05-04T22:30:00Z,30.2513,-88.0778,5.74,5.59,1111122 
DISL,ioos:station:DISL:DISL:1,2011-05-04T23:00:00Z,30.2513,-88.0778,5.871,5.13,1111122 
DISL,ioos:station:DISL:DISL:1,2011-05-04T23:30:00Z,30.2513,-88.0778,5.818,4.63,1111122 
DISL,ioos:station:DISL:DISL:1,2011-05-05T00:00:00Z,30.2513,-88.0778,5.291,4.19,1111122 
DISL,ioos:station:DISL:DISL:1,2011-05-05T00:30:00Z,30.2513,-88.0778,5.516,3.81,1111122 
DISL,ioos:station:DISL:DISL:1,2011-05-05T01:00:00Z,30.2513,-88.0778,5.44,3.58,1111122 
DISL,ioos:station:DISL:DISL:1,2011-05-05T01:30:00Z,30.2513,-88.0778,5.465,3.31,1111122 
DISL,ioos:station:DISL:DISL:1,2011-05-05T02:00:00Z,30.2513,-88.0778,5.078,3.12,1111122 
DISL,ioos:station:DISL:DISL:1,2011-05-05T02:30:00Z,30.2513,-88.0778,5.255,3.15,1111122 
DISL,ioos:station:DISL:DISL:1,2011-05-05T03:00:00Z,30.2513,-88.0778,5.218,3.23,1111122 
DISL,ioos:station:DISL:DISL:1,2011-05-05T03:30:00Z,30.2513,-88.0778,5.232,3.3,1111122 
DISL,ioos:station:DISL:DISL:1,2011-05-05T04:00:00Z,30.2513,-88.0778,5.169,3.88,1111122 
DISL,ioos:station:DISL:DISL:1,2011-05-05T04:30:00Z,30.2513,-88.0778,5.166,4.31,1111122 
DISL,ioos:station:DISL:DISL:1,2011-05-05T05:00:00Z,30.2513,-88.0778,5.23,3.97,1111122 
DISL,ioos:station:DISL:DISL:1,2011-05-05T05:30:00Z,30.2513,-88.0778,5.228,3.73,1111122 
DISL,ioos:station:DISL:DISL:1,2011-05-05T06:00:00Z,30.2513,-88.0778,5.349,3.57,1111122 
DISL,ioos:station:DISL:DISL:1,2011-05-05T06:30:00Z,30.2513,-88.0778,5.333,3.45,1111122 
DISL,ioos:station:DISL:DISL:1,2011-05-05T07:00:00Z,30.2513,-88.0778,5.392,3.36,1111122 
DISL,ioos:station:DISL:DISL:1,2011-05-05T07:30:00Z,30.2513,-88.0778,5.425,3.43,1111122 
DISL,ioos:station:DISL:DISL:1,2011-05-05T08:00:00Z,30.2513,-88.0778,5.549,3.53,1111122 
DISL,ioos:station:DISL:DISL:1,2011-05-05T08:30:00Z,30.2513,-88.0778,5.594,4.83,1111122 
DISL,ioos:station:DISL:DISL:1,2011-05-05T09:00:00Z,30.2513,-88.0778,5.697,5.66,1111122 
DISL,ioos:station:DISL:DISL:1,2011-05-05T09:30:00Z,30.2513,-88.0778,5.866,5.68,1111122 
DISL,ioos:station:DISL:DISL:1,2011-05-05T10:00:00Z,30.2513,-88.0778,5.843,6.14,1111122 
DISL,ioos:station:DISL:DISL:1,2011-05-05T10:30:00Z,30.2513,-88.0778,5.977,6.96,1111122 
DISL,ioos:station:DISL:DISL:1,2011-05-05T11:00:00Z,30.2513,-88.0778,5.983,6.98,1111122 
DISL,ioos:station:DISL:DISL:1,2011-05-05T11:30:00Z,30.2513,-88.0778,6.205,7.14,1111122 
DISL,ioos:station:DISL:DISL:1,2011-05-05T12:00:00Z,30.2513,-88.0778,6.129,9.41,1111122 
DISL,ioos:station:DISL:DISL:1,2011-05-05T12:30:00Z,30.2513,-88.0778,6.16,17.2,1111122 
DISL,ioos:station:DISL:DISL:1,2011-05-05T13:00:00Z,30.2513,-88.0778,6.265,20.43,1111122 
DISL,ioos:station:DISL:DISL:1,2011-05-05T13:30:00Z,30.2513,-88.0778,6.425,18.79,1111122 
DISL,ioos:station:DISL:DISL:1,2011-05-05T14:00:00Z,30.2513,-88.0778,6.356,19.94,1111122 
DISL,ioos:station:DISL:DISL:1,2011-05-05T14:30:00Z,30.2513,-88.0778,6.41,20.65,1111122 
DISL,ioos:station:DISL:DISL:1,2011-05-05T15:00:00Z,30.2513,-88.0778,6.452,21.2,1111122 
DISL,ioos:station:DISL:DISL:1,2011-05-05T15:30:00Z,30.2513,-88.0778,6.146,19.29,1111122 
DISL,ioos:station:DISL:DISL:1,2011-05-05T16:00:00Z,30.2513,-88.0778,6.574,18.44,1111122 
DISL,ioos:station:DISL:DISL:1,2011-05-05T16:30:00Z,30.2513,-88.0778,6.673,20.34,1111122 
DISL,ioos:station:DISL:DISL:1,2011-05-05T17:00:00Z,30.2513,-88.0778,6.7,24.0,1111122 
DISL,ioos:station:DISL:DISL:1,2011-05-05T17:30:00Z,30.2513,-88.0778,6.792,24.01,1111122 
DISL,ioos:station:DISL:DISL:1,2011-05-05T18:00:00Z,30.2513,-88.0778,6.806,20.55,1111122 
DISL,ioos:station:DISL:DISL:1,2011-05-05T18:30:00Z,30.2513,-88.0778,6.849,9.67,1111122 
DISL,ioos:station:DISL:DISL:1,2011-05-05T19:00:00Z,30.2513,-88.0778,6.829,6.31,1111122 
DISL,ioos:station:DISL:DISL:1,2011-05-05T19:30:00Z,30.2513,-88.0778,6.801,5.3,1111122 
DISL,ioos:station:DISL:DISL:1,2011-05-05T20:00:00Z,30.2513,-88.0778,6.689,5.08,1111122 
DISL,ioos:station:DISL:DISL:1,2011-05-05T20:30:00Z,30.2513,-88.0778,6.569,4.96,1111122 
DISL,ioos:station:DISL:DISL:1,2011-05-05T21:00:00Z,30.2513,-88.0778,6.428,4.99,1111122 
DISL,ioos:station:DISL:DISL:1,2011-05-05T21:30:00Z,30.2513,-88.0778,6.352,5.05,1111122 
DISL,ioos:station:DISL:DISL:1,2011-05-05T22:00:00Z,30.2513,-88.0778,6.292,4.99,1111122 
DISL,ioos:station:DISL:DISL:1,2011-05-05T22:30:00Z,30.2513,-88.0778,6.172,3.95,1111122 
DISL,ioos:station:DISL:DISL:1,2011-05-05T23:00:00Z,30.2513,-88.0778,6.05,3.44,1111122 
DISL,ioos:station:DISL:DISL:1,2011-05-05T23:30:00Z,30.2513,-88.0778,5.947,3.4,1111122 
DISL,ioos:station:DISL:DISL:1,2011-05-06T00:00:00Z,30.2513,-88.0778,5.876,3.57,1111122 
DISL,ioos:station:DISL:DISL:1,2011-05-06T00:30:00Z,30.2513,-88.0778,5.801,3.61,1111122 
DISL,ioos:station:DISL:DISL:1,2011-05-06T01:00:00Z,30.2513,-88.0778,5.701,3.73,1111122 
DISL,ioos:station:DISL:DISL:1,2011-05-06T01:30:00Z,30.2513,-88.0778,5.615,4.1,1111122 
DISL,ioos:station:DISL:DISL:1,2011-05-06T02:00:00Z,30.2513,-88.0778,5.581,4.36,1111122 
DISL,ioos:station:DISL:DISL:1,2011-05-06T02:30:00Z,30.2513,-88.0778,5.533,4.22,1111122 
DISL,ioos:station:DISL:DISL:1,2011-05-06T03:00:00Z,30.2513,-88.0778,5.513,4.39,1111122 
DISL,ioos:station:DISL:DISL:1,2011-05-06T03:30:00Z,30.2513,-88.0778,5.481,4.42,1111122 
DISL,ioos:station:DISL:DISL:1,2011-05-06T04:00:00Z,30.2513,-88.0778,5.448,4.1,1111122 
DISL,ioos:station:DISL:DISL:1,2011-05-06T04:30:00Z,30.2513,-88.0778,5.442,4.44,1111122 
DISL,ioos:station:DISL:DISL:1,2011-05-06T05:00:00Z,30.2513,-88.0778,5.454,4.25,1111122 
DISL,ioos:station:DISL:DISL:1,2011-05-06T05:30:00Z,30.2513,-88.0778,5.446,4.32,1111122 
DISL,ioos:station:DISL:DISL:1,2011-05-06T06:00:00Z,30.2513,-88.0778,5.529,4.08,1111122 
DISL,ioos:station:DISL:DISL:1,2011-05-06T06:30:00Z,30.2513,-88.0778,5.555,4.58,1111122 
DISL,ioos:station:DISL:DISL:1,2011-05-06T07:00:00Z,30.2513,-88.0778,5.576,5.31,1111122 
DISL,ioos:station:DISL:DISL:1,2011-05-06T07:30:00Z,30.2513,-88.0778,5.621,5.73,1111122 
DISL,ioos:station:DISL:DISL:1,2011-05-06T08:00:00Z,30.2513,-88.0778,5.633,5.28,1111122 
DISL,ioos:station:DISL:DISL:1,2011-05-06T08:30:00Z,30.2513,-88.0778,5.689,4.75,1111122 
DISL,ioos:station:DISL:DISL:1,2011-05-06T09:00:00Z,30.2513,-88.0778,5.763,4.14,1111122 
DISL,ioos:station:DISL:DISL:1,2011-05-06T09:30:00Z,30.2513,-88.0778,5.822,4.18,1111122 
DISL,ioos:station:DISL:DISL:1,2011-05-06T10:00:00Z,30.2513,-88.0778,5.902,4.19,1111122 
DISL,ioos:station:DISL:DISL:1,2011-05-06T10:30:00Z,30.2513,-88.0778,5.982,5.58,1111122 
DISL,ioos:station:DISL:DISL:1,2011-05-06T11:00:00Z,30.2513,-88.0778,6.065,8.89,1111122 
DISL,ioos:station:DISL:DISL:1,2011-05-06T11:30:00Z,30.2513,-88.0778,6.12,17.22,1111122 
DISL,ioos:station:DISL:DISL:1,2011-05-06T12:00:00Z,30.2513,-88.0778,6.18,19.84,1111122 
DISL,ioos:station:DISL:DISL:1,2011-05-06T13:30:00Z,30.2513,-88.0778,6.522,18.6,1111122 
DISL,ioos:station:DISL:DISL:1,2011-05-06T14:00:00Z,30.2513,-88.0778,6.631,19.48,1111122 
DISL,ioos:station:DISL:DISL:1,2011-05-06T14:30:00Z,30.2513,-88.0778,6.675,20.7,1111122 
DISL,ioos:station:DISL:DISL:1,2011-05-06T15:00:00Z,30.2513,-88.0778,6.773,20.29,1111122 
DISL,ioos:station:DISL:DISL:1,2011-05-06T15:30:00Z,30.2513,-88.0778,6.817,22.4,1111122 
DISL,ioos:station:DISL:DISL:1,2011-05-06T16:00:00Z,30.2513,-88.0778,6.891,20.18,1111122 
DISL,ioos:station:DISL:DISL:1,2011-05-06T16:30:00Z,30.2513,-88.0778,6.907,18.54,1111122 